This is the latest recevied weather packets stored in our database for station/object 9M2GDD-1. If no packets are shown the sender has not sent any weather packets the latest 10 day(s).
| Time | Temp. | Humidity | Pressure | Rain* | Wind** | Luminosity | Snow |
|---|---|---|---|---|---|---|---|
| 1787661502 | 30.56° C | 72% | 1013.9 hPa | - | - | - | - |
| 1787660602 | 30.56° C | 72% | 1013.6 hPa | - | - | - | - |
| 1787659702 | 30.56° C | 72% | 1013.2 hPa | - | - | - | - |
| 1787658801 | 30.56° C | 71% | 1013.2 hPa | - | - | - | - |
| 1787657901 | 30.56° C | 70% | 1012.9 hPa | - | - | - | - |
| 1787657001 | 31.11° C | 68% | 1013 hPa | - | - | - | - |
| 1787656101 | 30.56° C | 68% | 1012.7 hPa | - | - | - | - |
| 1787655201 | 31.11° C | 65% | 1012.5 hPa | - | - | - | - |
| 1787654301 | 31.11° C | 63% | 1012.2 hPa | - | - | - | - |
| 1787653401 | 31.11° C | 60% | 1012 hPa | - | - | - | - |
| 1787652501 | 31.11° C | 60% | 1012 hPa | - | - | - | - |
| 1787651601 | 31.11° C | 62% | 1012.3 hPa | - | - | - | - |
| 1787650701 | 31.67° C | 57% | 1012.2 hPa | - | - | - | - |
| 1787649801 | 31.67° C | 63% | 1012.3 hPa | - | - | - | - |
| 1787648900 | 31.67° C | 64% | 1012.6 hPa | - | - | - | - |
| 1787648000 | 32.22° C | 64% | 1012.7 hPa | - | - | - | - |
| 1787647100 | 32.22° C | 64% | 1012.5 hPa | - | - | - | - |
| 1787646200 | 31.67° C | 67% | 1012.8 hPa | - | - | - | - |
| 1787645300 | 31.67° C | 67% | 1013 hPa | - | - | - | - |
| 1787644400 | 31.11° C | 68% | 1013 hPa | - | - | - | - |
| 1787643500 | 31.11° C | 68% | 1013 hPa | - | - | - | - |
| 1787642600 | 31.11° C | 67% | 1013.3 hPa | - | - | - | - |
| 1787641700 | 31.11° C | 69% | 1013.5 hPa | - | - | - | - |
| 1787640800 | 30.56° C | 69% | 1013.6 hPa | - | - | - | - |
| 1787639900 | 30.56° C | 70% | 1014 hPa | - | - | - | - |
* Rain since midnight (hover to see other rain measurements)
** Current wind speed in m/s (hover to see current wind gust speed)